AAL1332 KLAX-KDEN

Flight info

Callsign AAL1332
Flight time 1h 46m
Altitude 37000
Route ORCKA5 LAS J146 DICEE BUMMP SSKII3
Aircraft A20N/M-SDE2E3FGHIRWXY/LB1

Departure

Time 2026-04-24 01:36
Airport Los Angeles International Airport (KLAX)

Arrival

Time 2026-04-24 03:22
Airport Denver International Airport (KDEN)
Time Latitude Longitude Altitude Speed Heading
2026-04-24 01:12 33.94705 -118.40831 125 ft 0 kts 139°
2026-04-24 01:25 33.94703 -118.40829 120 ft 1 kts 139°
2026-04-24 01:25 33.94698 -118.40824 121 ft 0 kts 139°
2026-04-24 01:26 33.94701 -118.40828 121 ft 2 kts 139°
2026-04-24 01:26 33.94714 -118.40841 120 ft 2 kts 137°
2026-04-24 01:26 33.94726 -118.40854 120 ft 2 kts 137°
2026-04-24 01:26 33.94731 -118.40860 120 ft 0 kts 137°
2026-04-24 01:27 33.94736 -118.40865 122 ft 2 kts 137°
2026-04-24 01:27 33.94748 -118.40879 120 ft 2 kts 126°
2026-04-24 01:27 33.94754 -118.40895 120 ft 1 kts 85°
2026-04-24 01:30 33.94766 -118.40881 122 ft 4 kts 20°
2026-04-24 01:31 33.94831 -118.40849 124 ft 13 kts 46°
2026-04-24 01:31 33.94848 -118.40750 123 ft 15 kts 84°
2026-04-24 01:31 33.94864 -118.40609 122 ft 16 kts 82°
2026-04-24 01:31 33.94885 -118.40437 125 ft 22 kts 83°
2026-04-24 01:32 33.94898 -118.40282 124 ft 12 kts 83°
2026-04-24 01:32 33.94914 -118.40138 123 ft 21 kts 82°
2026-04-24 01:32 33.94930 -118.39984 125 ft 12 kts 82°
2026-04-24 01:32 33.94952 -118.39926 122 ft 0 kts 32°
2026-04-24 01:34 33.94964 -118.39920 124 ft 5 kts 20°
2026-04-24 01:34 33.95026 -118.39925 123 ft 8 kts 342°
2026-04-24 01:34 33.95039 -118.39985 124 ft 11 kts 261°
2026-04-24 01:34 33.95037 -118.40001 124 ft 0 kts 261°
2026-04-24 01:35 33.95035 -118.40020 123 ft 18 kts 262°
2026-04-24 01:35 33.94989 -118.40469 121 ft 87 kts 262°
2026-04-24 01:35 33.94892 -118.41407 125 ft 135 kts 262°
2026-04-24 01:35 33.94766 -118.42618 575 ft 128 kts 263°
2026-04-24 01:36 33.94620 -118.43772 837 ft 158 kts 259°
2026-04-24 01:36 33.94353 -118.45144 1081 ft 170 kts 256°
2026-04-24 01:36 33.94054 -118.46490 1359 ft 175 kts 256°
2026-04-24 01:36 33.93722 -118.47974 1660 ft 190 kts 256°
2026-04-24 01:37 33.93374 -118.49557 2113 ft 201 kts 257°
2026-04-24 01:37 33.93012 -118.51214 2606 ft 208 kts 257°
2026-04-24 01:37 33.92641 -118.52931 3104 ft 217 kts 256°
2026-04-24 01:37 33.91949 -118.54623 3339 ft 238 kts 227°
2026-04-24 01:38 33.90521 -118.55691 3969 ft 249 kts 195°
2026-04-24 01:38 33.88744 -118.55794 4592 ft 268 kts 167°
2026-04-24 01:38 33.87062 -118.54813 5491 ft 273 kts 138°
2026-04-24 01:38 33.86231 -118.53680 6132 ft 275 kts 120°
2026-04-24 01:39 33.85607 -118.51518 7016 ft 279 kts 94°
2026-04-24 01:39 33.85852 -118.49186 7818 ft 286 kts 67°
2026-04-24 01:39 33.86946 -118.47184 8642 ft 291 kts 40°
2026-04-24 01:39 33.88664 -118.45924 9556 ft 292 kts 19°
2026-04-24 01:40 33.90573 -118.45002 10364 ft 303 kts 21°
2026-04-24 01:40 33.92469 -118.43693 10731 ft 330 kts 35°
2026-04-24 01:40 33.94146 -118.41637 11135 ft 353 kts 48°
2026-04-24 01:40 33.95651 -118.39246 11887 ft 362 kts 52°
2026-04-24 01:41 33.97097 -118.36733 12689 ft 369 kts 53°
2026-04-24 01:41 33.98429 -118.34350 13422 ft 375 kts 53°
2026-04-24 01:41 33.99895 -118.31717 14182 ft 381 kts 53°
2026-04-24 01:41 34.01389 -118.29046 14644 ft 386 kts 53°
2026-04-24 01:42 34.02900 -118.26365 14850 ft 387 kts 52°
2026-04-24 01:42 34.04422 -118.23672 14924 ft 389 kts 52°
2026-04-24 01:42 34.05940 -118.20991 14917 ft 388 kts 52°
2026-04-24 01:42 34.07473 -118.18283 15184 ft 392 kts 52°
2026-04-24 01:43 34.09013 -118.15560 15964 ft 394 kts 52°
2026-04-24 01:43 34.10569 -118.12807 16656 ft 400 kts 52°
2026-04-24 01:43 34.12151 -118.10007 17335 ft 406 kts 52°
2026-04-24 01:43 34.13750 -118.07170 18010 ft 412 kts 52°
2026-04-24 01:44 34.15371 -118.04293 18623 ft 417 kts 52°
2026-04-24 01:44 34.17006 -118.01388 19295 ft 420 kts 52°
2026-04-24 01:44 34.18652 -117.98462 19933 ft 423 kts 52°
2026-04-24 01:44 34.20315 -117.95504 20525 ft 428 kts 52°
2026-04-24 01:45 34.21987 -117.92528 21157 ft 430 kts 52°
2026-04-24 01:45 34.23673 -117.89525 21726 ft 435 kts 52°
2026-04-24 01:45 34.25380 -117.86482 22317 ft 439 kts 53°
2026-04-24 01:45 34.27096 -117.83419 22940 ft 442 kts 52°
2026-04-24 01:46 34.28828 -117.80326 23482 ft 447 kts 53°
2026-04-24 01:46 34.30573 -117.77207 24014 ft 450 kts 53°
2026-04-24 01:46 34.32336 -117.74051 24519 ft 453 kts 52°
2026-04-24 01:46 34.34107 -117.70881 24964 ft 458 kts 53°
2026-04-24 01:47 34.35906 -117.67675 25429 ft 461 kts 52°
2026-04-24 01:47 34.37777 -117.64508 25885 ft 464 kts 51°
2026-04-24 01:47 34.39692 -117.61343 26316 ft 468 kts 50°
2026-04-24 01:47 34.41622 -117.58156 26755 ft 472 kts 50°
2026-04-24 01:48 34.43562 -117.54932 27185 ft 475 kts 51°
2026-04-24 01:48 34.45509 -117.51677 27611 ft 479 kts 51°
2026-04-24 01:48 34.47465 -117.48397 28026 ft 482 kts 51°
2026-04-24 01:48 34.49428 -117.45097 28432 ft 485 kts 51°
2026-04-24 01:49 34.51410 -117.41762 28811 ft 488 kts 51°
2026-04-24 01:49 34.53401 -117.38407 29183 ft 491 kts 51°
2026-04-24 01:49 34.55398 -117.35039 29554 ft 494 kts 51°
2026-04-24 01:49 34.57412 -117.31639 29904 ft 497 kts 51°
2026-04-24 01:50 34.59435 -117.28221 30248 ft 500 kts 51°
2026-04-24 01:50 34.61473 -117.24776 30540 ft 503 kts 51°
2026-04-24 01:50 34.63515 -117.21320 30853 ft 505 kts 51°
2026-04-24 01:50 34.65571 -117.17836 31162 ft 508 kts 51°
2026-04-24 01:51 34.67595 -117.14402 31546 ft 508 kts 51°
2026-04-24 01:51 34.69653 -117.10908 31937 ft 508 kts 51°
2026-04-24 01:51 34.71712 -117.07409 32300 ft 508 kts 51°
2026-04-24 01:51 34.73764 -117.03918 32710 ft 508 kts 51°
2026-04-24 01:52 34.75815 -117.00426 33118 ft 507 kts 51°
2026-04-24 01:52 34.77868 -116.96927 33487 ft 508 kts 51°
2026-04-24 01:52 34.79916 -116.93432 33880 ft 507 kts 51°
2026-04-24 01:52 34.81962 -116.89940 34191 ft 507 kts 51°
2026-04-24 01:53 34.84010 -116.86440 34505 ft 507 kts 51°
2026-04-24 01:53 34.86054 -116.82943 34805 ft 507 kts 51°
2026-04-24 01:53 34.88095 -116.79446 35096 ft 507 kts 51°
2026-04-24 01:53 34.90137 -116.75946 35364 ft 507 kts 51°
2026-04-24 01:54 34.92236 -116.72499 35650 ft 504 kts 45°
2026-04-24 01:54 34.94583 -116.69352 35910 ft 502 kts 42°
2026-04-24 01:54 34.96960 -116.66240 36158 ft 502 kts 42°
2026-04-24 01:54 34.99332 -116.63123 36412 ft 502 kts 42°
2026-04-24 01:55 35.01704 -116.59998 36661 ft 502 kts 42°
2026-04-24 01:55 35.04075 -116.56871 36888 ft 502 kts 42°
2026-04-24 01:55 35.06442 -116.53746 36935 ft 501 kts 42°
2026-04-24 01:56 35.11170 -116.47496 36944 ft 500 kts 42°
2026-04-24 01:56 35.15887 -116.41251 36938 ft 501 kts 42°
2026-04-24 01:57 35.20608 -116.34988 36938 ft 501 kts 42°
2026-04-24 01:57 35.25324 -116.28721 36933 ft 501 kts 42°
2026-04-24 01:58 35.30041 -116.22441 36933 ft 501 kts 42°
2026-04-24 01:58 35.34752 -116.16157 36936 ft 501 kts 42°
2026-04-24 01:59 35.39461 -116.09862 36941 ft 501 kts 42°
2026-04-24 01:59 35.44165 -116.03564 36951 ft 501 kts 42°
2026-04-24 02:00 35.48870 -115.97254 36960 ft 501 kts 42°
2026-04-24 02:00 35.53573 -115.90933 36969 ft 501 kts 42°
2026-04-24 02:01 35.58244 -115.84642 36974 ft 501 kts 42°
2026-04-24 02:01 35.62937 -115.78312 36979 ft 501 kts 42°
2026-04-24 02:02 35.67609 -115.71932 36981 ft 502 kts 43°
2026-04-24 02:02 35.72256 -115.65522 36983 ft 502 kts 43°
2026-04-24 02:03 35.79215 -115.55919 36975 ft 497 kts 43°
2026-04-24 02:03 35.83875 -115.49487 36988 ft 509 kts 43°
2026-04-24 02:04 35.88633 -115.42905 36979 ft 516 kts 43°
2026-04-24 02:04 35.93375 -115.36318 36965 ft 513 kts 43°
2026-04-24 02:05 35.98133 -115.29704 36965 ft 515 kts 43°
2026-04-24 02:05 36.02883 -115.23089 36934 ft 514 kts 43°
2026-04-24 02:06 36.07280 -115.16072 36933 ft 522 kts 54°
2026-04-24 02:06 36.10448 -115.07954 36928 ft 527 kts 67°
2026-04-24 02:07 36.13797 -114.97080 36883 ft 528 kts 66°
2026-04-24 02:07 36.18861 -114.80616 36875 ft 529 kts 66°
2026-04-24 02:08 36.21451 -114.72159 36862 ft 529 kts 66°
2026-04-24 02:08 36.24076 -114.63574 36852 ft 529 kts 66°
2026-04-24 02:09 36.26676 -114.55041 36847 ft 530 kts 66°
2026-04-24 02:09 36.29272 -114.46494 36851 ft 530 kts 66°
2026-04-24 02:10 36.31865 -114.37930 36858 ft 531 kts 66°
2026-04-24 02:10 36.34451 -114.29362 36852 ft 531 kts 66°
2026-04-24 02:11 36.38465 -114.16011 36874 ft 532 kts 66°
2026-04-24 02:11 36.41044 -114.07403 36870 ft 532 kts 66°
2026-04-24 02:12 36.43598 -113.98848 36883 ft 532 kts 66°
2026-04-24 02:12 36.46180 -113.90176 36895 ft 532 kts 66°
2026-04-24 02:13 36.48724 -113.81601 36897 ft 532 kts 66°
2026-04-24 02:13 36.51297 -113.72904 36908 ft 533 kts 67°
2026-04-24 02:14 36.53849 -113.64250 36911 ft 533 kts 66°
2026-04-24 02:14 36.56396 -113.55589 36913 ft 533 kts 67°
2026-04-24 02:15 36.58920 -113.46979 36918 ft 533 kts 67°
2026-04-24 02:15 36.62277 -113.35487 36920 ft 533 kts 67°
2026-04-24 02:16 36.67323 -113.18089 36941 ft 534 kts 67°
2026-04-24 02:16 36.71235 -113.04526 36968 ft 534 kts 67°
2026-04-24 02:17 36.76245 -112.87059 36974 ft 535 kts 67°
2026-04-24 02:17 36.79375 -112.76090 36958 ft 535 kts 67°
2026-04-24 02:18 36.82412 -112.65404 36934 ft 535 kts 67°
2026-04-24 02:18 36.87368 -112.47874 36917 ft 536 kts 67°
2026-04-24 02:19 36.90009 -112.38476 36919 ft 537 kts 67°
2026-04-24 02:19 36.92471 -112.29670 36908 ft 537 kts 67°
2026-04-24 02:20 36.94939 -112.20853 36918 ft 537 kts 67°
2026-04-24 02:20 36.97399 -112.12037 36905 ft 538 kts 67°
2026-04-24 02:21 36.99855 -112.03203 36895 ft 538 kts 67°
2026-04-24 02:21 37.02303 -111.94365 36879 ft 538 kts 68°
2026-04-24 02:22 37.04748 -111.85513 36868 ft 538 kts 68°
2026-04-24 02:22 37.07185 -111.76659 36873 ft 538 kts 68°
2026-04-24 02:23 37.09617 -111.67792 36884 ft 538 kts 68°
2026-04-24 02:23 37.12043 -111.58919 36887 ft 538 kts 68°
2026-04-24 02:24 37.14052 -111.51544 36886 ft 539 kts 68°
2026-04-24 02:24 37.16467 -111.42655 36878 ft 539 kts 68°
2026-04-24 02:25 37.18873 -111.33771 36862 ft 539 kts 68°
2026-04-24 02:25 37.21275 -111.24869 36842 ft 538 kts 67°
2026-04-24 02:26 37.24340 -111.16371 36832 ft 534 kts 58°
2026-04-24 02:26 37.27672 -111.08028 36843 ft 535 kts 59°
2026-04-24 02:27 37.30997 -110.99660 36846 ft 536 kts 59°
2026-04-24 02:27 37.34312 -110.91296 36840 ft 534 kts 59°
2026-04-24 02:28 37.37617 -110.82935 36841 ft 534 kts 59°
2026-04-24 02:28 37.40918 -110.74562 36830 ft 534 kts 59°
2026-04-24 02:29 37.44216 -110.66174 36853 ft 535 kts 59°
2026-04-24 02:29 37.47505 -110.57788 36859 ft 534 kts 59°
2026-04-24 02:30 37.50789 -110.49391 36866 ft 535 kts 59°
2026-04-24 02:30 37.54068 -110.40982 36874 ft 535 kts 59°
2026-04-24 02:31 37.57340 -110.32568 36866 ft 535 kts 59°
2026-04-24 02:31 37.60584 -110.24207 36881 ft 534 kts 59°
2026-04-24 02:32 37.63841 -110.15789 36887 ft 534 kts 59°
2026-04-24 02:32 37.67092 -110.07361 36901 ft 534 kts 59°
2026-04-24 02:33 37.70341 -109.98920 36909 ft 534 kts 59°
2026-04-24 02:33 37.73580 -109.90478 36910 ft 534 kts 60°
2026-04-24 02:34 37.76815 -109.82024 36930 ft 534 kts 60°
2026-04-24 02:34 37.80047 -109.73556 36949 ft 535 kts 60°
2026-04-24 02:35 37.83275 -109.65075 36957 ft 536 kts 60°
2026-04-24 02:35 37.86504 -109.56567 36961 ft 536 kts 60°
2026-04-24 02:36 37.89724 -109.48057 36958 ft 536 kts 60°
2026-04-24 02:36 37.92952 -109.39564 36946 ft 535 kts 58°
2026-04-24 02:37 37.96165 -109.31065 36942 ft 535 kts 60°
2026-04-24 02:37 37.99337 -109.22520 36941 ft 535 kts 60°
2026-04-24 02:38 38.02525 -109.14000 36942 ft 535 kts 60°
2026-04-24 02:38 38.05703 -109.05461 36949 ft 535 kts 60°
2026-04-24 02:39 38.08885 -108.96916 36946 ft 535 kts 60°
2026-04-24 02:39 38.12114 -108.88407 36947 ft 534 kts 59°
2026-04-24 02:40 38.15460 -108.79988 36941 ft 534 kts 59°
2026-04-24 02:40 38.18793 -108.71550 36951 ft 534 kts 59°
2026-04-24 02:41 38.22105 -108.63096 36949 ft 534 kts 59°
2026-04-24 02:41 38.25407 -108.54633 36951 ft 534 kts 59°
2026-04-24 02:42 38.28679 -108.46225 36949 ft 534 kts 59°
2026-04-24 02:42 38.31970 -108.37747 36963 ft 537 kts 59°
2026-04-24 02:43 38.35244 -108.29282 36945 ft 531 kts 59°
2026-04-24 02:43 38.38518 -108.20810 36960 ft 533 kts 60°
2026-04-24 02:44 38.41785 -108.12322 36972 ft 533 kts 60°
2026-04-24 02:44 38.45035 -108.03850 36986 ft 532 kts 60°
2026-04-24 02:45 38.48279 -107.95340 37020 ft 534 kts 60°
2026-04-24 02:45 38.51500 -107.86799 37026 ft 534 kts 60°
2026-04-24 02:46 38.54716 -107.78255 37013 ft 534 kts 60°
2026-04-24 02:46 38.57914 -107.69740 36977 ft 530 kts 60°
2026-04-24 02:47 38.61097 -107.61245 36952 ft 530 kts 60°
2026-04-24 02:47 38.64271 -107.52752 36928 ft 529 kts 61°
2026-04-24 02:48 38.67454 -107.44261 36919 ft 528 kts 60°
2026-04-24 02:48 38.70664 -107.35811 36919 ft 528 kts 60°
2026-04-24 02:49 38.73861 -107.27363 36926 ft 527 kts 60°
2026-04-24 02:49 38.77046 -107.18908 36945 ft 526 kts 60°
2026-04-24 02:50 38.80214 -107.10470 36789 ft 524 kts 61°
2026-04-24 02:50 38.81790 -107.06262 36338 ft 522 kts 60°
2026-04-24 02:50 38.83358 -107.02070 35731 ft 521 kts 60°
2026-04-24 02:51 38.84925 -106.97875 35103 ft 523 kts 60°
2026-04-24 02:51 38.86502 -106.93652 34484 ft 525 kts 60°
2026-04-24 02:51 38.88077 -106.89427 33821 ft 525 kts 60°
2026-04-24 02:51 38.89647 -106.85205 33069 ft 523 kts 61°
2026-04-24 02:52 38.91208 -106.81003 32318 ft 518 kts 61°
2026-04-24 02:52 38.92722 -106.76919 31568 ft 508 kts 61°
2026-04-24 02:52 38.94223 -106.72861 30853 ft 497 kts 61°
2026-04-24 02:52 38.95690 -106.68895 30179 ft 486 kts 62°
2026-04-24 02:53 38.97126 -106.65007 29407 ft 476 kts 62°
2026-04-24 02:53 38.98529 -106.61203 28631 ft 467 kts 62°
2026-04-24 02:53 38.99906 -106.57468 27887 ft 458 kts 62°
2026-04-24 02:53 39.01257 -106.53791 27162 ft 453 kts 62°
2026-04-24 02:54 39.02594 -106.50139 26461 ft 449 kts 62°
2026-04-24 02:54 39.03917 -106.46520 25778 ft 445 kts 62°
2026-04-24 02:54 39.05226 -106.42937 25130 ft 442 kts 62°
2026-04-24 02:54 39.06534 -106.39355 24471 ft 443 kts 62°
2026-04-24 02:55 39.07843 -106.35767 23830 ft 442 kts 62°
2026-04-24 02:55 39.09146 -106.32189 23106 ft 441 kts 62°
2026-04-24 02:55 39.10443 -106.28621 22416 ft 439 kts 62°
2026-04-24 02:55 39.11715 -106.25108 22143 ft 426 kts 62°
2026-04-24 02:56 39.12936 -106.21718 22083 ft 409 kts 62°
2026-04-24 02:56 39.14113 -106.18451 21790 ft 399 kts 62°
2026-04-24 02:56 39.15279 -106.15227 21287 ft 395 kts 62°
2026-04-24 02:56 39.16431 -106.12036 20796 ft 390 kts 62°
2026-04-24 02:57 39.17573 -106.08867 20280 ft 388 kts 62°
2026-04-24 02:57 39.18694 -106.05748 20068 ft 382 kts 62°
2026-04-24 02:57 39.19822 -106.02611 19993 ft 388 kts 62°
2026-04-24 02:57 39.20955 -105.99459 19962 ft 387 kts 62°
2026-04-24 02:58 39.22088 -105.96310 19937 ft 387 kts 62°
2026-04-24 02:58 39.23219 -105.93168 19913 ft 386 kts 62°
2026-04-24 02:58 39.24344 -105.90033 19713 ft 384 kts 62°
2026-04-24 02:58 39.25466 -105.86921 19325 ft 381 kts 62°
2026-04-24 02:59 39.26581 -105.83834 18989 ft 377 kts 62°
2026-04-24 02:59 39.27686 -105.80769 18886 ft 378 kts 62°
2026-04-24 02:59 39.28798 -105.77683 18867 ft 380 kts 62°
2026-04-24 02:59 39.29912 -105.74586 18858 ft 380 kts 63°
2026-04-24 03:00 39.31022 -105.71491 18860 ft 380 kts 63°
2026-04-24 03:00 39.32133 -105.68391 18866 ft 380 kts 63°
2026-04-24 03:00 39.33242 -105.65302 18858 ft 380 kts 62°
2026-04-24 03:00 39.34353 -105.62255 18844 ft 379 kts 62°
2026-04-24 03:01 39.35473 -105.59195 18669 ft 376 kts 62°
2026-04-24 03:01 39.36588 -105.56146 18294 ft 374 kts 62°
2026-04-24 03:01 39.37692 -105.53118 17871 ft 369 kts 62°
2026-04-24 03:01 39.38764 -105.50169 17731 ft 356 kts 62°
2026-04-24 03:02 39.39798 -105.47318 17554 ft 345 kts 62°
2026-04-24 03:02 39.40813 -105.44520 17175 ft 341 kts 62°
2026-04-24 03:02 39.41875 -105.41823 17015 ft 335 kts 54°
2026-04-24 03:02 39.43201 -105.39340 16972 ft 336 kts 51°
2026-04-24 03:03 39.44552 -105.36877 16799 ft 335 kts 51°
2026-04-24 03:03 39.45887 -105.34423 16450 ft 333 kts 51°
2026-04-24 03:03 39.47214 -105.31975 16040 ft 331 kts 51°
2026-04-24 03:03 39.48532 -105.29542 15648 ft 329 kts 51°
2026-04-24 03:04 39.49842 -105.27125 15246 ft 327 kts 51°
2026-04-24 03:04 39.51136 -105.24737 15043 ft 322 kts 52°
2026-04-24 03:04 39.52432 -105.22347 14989 ft 326 kts 52°
2026-04-24 03:04 39.53733 -105.19936 14995 ft 326 kts 53°
2026-04-24 03:05 39.54833 -105.17354 15001 ft 329 kts 63°
2026-04-24 03:05 39.55803 -105.14671 15009 ft 328 kts 62°
2026-04-24 03:05 39.56780 -105.11998 15019 ft 328 kts 62°
2026-04-24 03:05 39.57759 -105.09327 15022 ft 328 kts 63°
2026-04-24 03:06 39.58737 -105.06659 15029 ft 328 kts 63°
2026-04-24 03:06 39.59712 -105.03994 15034 ft 327 kts 63°
2026-04-24 03:06 39.60685 -105.01334 14868 ft 325 kts 63°
2026-04-24 03:06 39.61653 -104.98685 14531 ft 324 kts 63°
2026-04-24 03:07 39.62614 -104.96052 14171 ft 323 kts 63°
2026-04-24 03:07 39.63570 -104.93428 13795 ft 321 kts 63°
2026-04-24 03:07 39.64520 -104.90819 13368 ft 319 kts 63°
2026-04-24 03:07 39.65460 -104.88233 13118 ft 314 kts 63°
2026-04-24 03:08 39.66399 -104.85649 13056 ft 318 kts 63°
2026-04-24 03:08 39.68285 -104.80456 13048 ft 318 kts 63°
2026-04-24 03:08 39.69280 -104.77893 13050 ft 317 kts 57°
2026-04-24 03:09 39.70591 -104.75613 13049 ft 315 kts 45°
2026-04-24 03:09 39.72133 -104.73609 13044 ft 313 kts 42°
2026-04-24 03:09 39.73658 -104.71636 12981 ft 305 kts 42°
2026-04-24 03:09 39.75141 -104.69701 12741 ft 300 kts 43°
2026-04-24 03:10 39.76609 -104.67783 12370 ft 298 kts 43°
2026-04-24 03:10 39.77808 -104.65638 12004 ft 299 kts 65°
2026-04-24 03:10 39.78215 -104.63052 11884 ft 289 kts 88°
2026-04-24 03:10 39.78228 -104.60484 11777 ft 278 kts 89°
2026-04-24 03:11 39.78237 -104.58023 11644 ft 268 kts 89°
2026-04-24 03:11 39.78246 -104.55623 11350 ft 265 kts 89°
2026-04-24 03:11 39.78254 -104.53239 11091 ft 261 kts 89°
2026-04-24 03:11 39.78258 -104.50860 11027 ft 265 kts 89°
2026-04-24 03:12 39.78265 -104.48474 10975 ft 263 kts 88°
2026-04-24 03:12 39.78273 -104.46102 10726 ft 262 kts 88°
2026-04-24 03:12 39.78284 -104.43738 10425 ft 261 kts 88°
2026-04-24 03:12 39.78291 -104.42150 10222 ft 260 kts 88°
2026-04-24 03:13 39.78301 -104.39804 9908 ft 259 kts 88°
2026-04-24 03:13 39.78311 -104.37477 9610 ft 257 kts 88°
2026-04-24 03:13 39.78321 -104.35186 9285 ft 256 kts 88°
2026-04-24 03:13 39.78331 -104.32885 9021 ft 252 kts 88°
2026-04-24 03:14 39.78340 -104.30601 8955 ft 255 kts 88°
2026-04-24 03:14 39.78349 -104.28288 8950 ft 256 kts 88°
2026-04-24 03:14 39.78357 -104.25987 8941 ft 254 kts 88°
2026-04-24 03:14 39.78561 -104.23730 8935 ft 250 kts 66°
2026-04-24 03:15 39.79520 -104.21903 8948 ft 245 kts 36°
2026-04-24 03:15 39.81016 -104.20949 8928 ft 240 kts
2026-04-24 03:15 39.82651 -104.21040 8930 ft 235 kts 340°
2026-04-24 03:15 39.84041 -104.22098 8935 ft 233 kts 313°
2026-04-24 03:16 39.84890 -104.23860 8937 ft 232 kts 287°
2026-04-24 03:16 39.85324 -104.25886 8943 ft 232 kts 285°
2026-04-24 03:16 39.85753 -104.27908 8951 ft 231 kts 285°
2026-04-24 03:16 39.86178 -104.29876 8956 ft 220 kts 286°
2026-04-24 03:17 39.86595 -104.31784 8964 ft 220 kts 286°
2026-04-24 03:17 39.87015 -104.33701 8971 ft 221 kts 286°
2026-04-24 03:17 39.87379 -104.35638 8977 ft 219 kts 279°
2026-04-24 03:17 39.87529 -104.37554 8918 ft 209 kts 273°
2026-04-24 03:18 39.87546 -104.39424 8702 ft 207 kts 271°
2026-04-24 03:18 39.87557 -104.41297 8399 ft 206 kts 272°
2026-04-24 03:18 39.87571 -104.43141 8108 ft 199 kts 272°
2026-04-24 03:18 39.87585 -104.44884 7854 ft 186 kts 271°
2026-04-24 03:19 39.87598 -104.46505 7619 ft 173 kts 272°
2026-04-24 03:19 39.87610 -104.48010 7421 ft 158 kts 272°
2026-04-24 03:19 39.87622 -104.49441 7220 ft 159 kts 272°
2026-04-24 03:19 39.87632 -104.50806 7023 ft 145 kts 272°
2026-04-24 03:20 39.87644 -104.52115 6847 ft 144 kts 272°
2026-04-24 03:20 39.87654 -104.53409 6669 ft 143 kts 272°
2026-04-24 03:20 39.87665 -104.54706 6497 ft 147 kts 272°
2026-04-24 03:20 39.87676 -104.56056 6295 ft 149 kts 272°
2026-04-24 03:21 39.87686 -104.57391 6076 ft 144 kts 272°
2026-04-24 03:21 39.87694 -104.58654 5862 ft 136 kts 272°
2026-04-24 03:21 39.87708 -104.59840 5649 ft 129 kts 273°
2026-04-24 03:21 39.87715 -104.60999 5458 ft 130 kts 275°
2026-04-24 03:22 39.87726 -104.62201 5347 ft 132 kts 272°
2026-04-24 03:22 39.87737 -104.63301 5321 ft 99 kts 271°
2026-04-24 03:22 39.87745 -104.63929 5328 ft 42 kts 269°
2026-04-24 03:22 39.87741 -104.64118 5328 ft 16 kts 267°
2026-04-24 03:23 39.87735 -104.64263 5334 ft 16 kts 264°
2026-04-24 03:23 39.87718 -104.64421 5338 ft 19 kts 258°
2026-04-24 03:23 39.87670 -104.64592 5340 ft 17 kts 239°
2026-04-24 03:23 39.87641 -104.64659 5342 ft 0 kts 240°
2026-04-24 03:25 39.87636 -104.64669 5341 ft 8 kts 240°
2026-04-24 03:25 39.87597 -104.64766 5344 ft 16 kts 245°
2026-04-24 03:25 39.87583 -104.64934 5346 ft 21 kts 271°
2026-04-24 03:25 39.87584 -104.65109 5349 ft 22 kts 271°
2026-04-24 03:26 39.87583 -104.65331 5351 ft 27 kts 268°
2026-04-24 03:26 39.87587 -104.65588 5353 ft 25 kts 269°
2026-04-24 03:26 39.87587 -104.65778 5355 ft 22 kts 274°
2026-04-24 03:26 39.87590 -104.65986 5356 ft 19 kts 267°
2026-04-24 03:27 39.87587 -104.66165 5361 ft 17 kts 261°
2026-04-24 03:27 39.87485 -104.66226 5362 ft 11 kts 230°
2026-04-24 03:27 39.87474 -104.66317 5360 ft 12 kts 220°
2026-04-24 03:27 39.87361 -104.66333 5363 ft 22 kts 179°
2026-04-24 03:28 39.87177 -104.66332 5364 ft 31 kts 180°
2026-04-24 03:28 39.87016 -104.66335 5367 ft 19 kts 181°
2026-04-24 03:28 39.86866 -104.66335 5369 ft 25 kts 180°
2026-04-24 03:28 39.86733 -104.66337 5370 ft 19 kts 180°
2026-04-24 03:29 39.86594 -104.66340 5376 ft 21 kts 181°
2026-04-24 03:29 39.86457 -104.66342 5379 ft 17 kts 180°
2026-04-24 03:29 39.86326 -104.66343 5380 ft 20 kts 180°
2026-04-24 03:29 39.86187 -104.66344 5386 ft 17 kts 180°
2026-04-24 03:30 39.86113 -104.66378 5387 ft 12 kts 235°
2026-04-24 03:30 39.86112 -104.66507 5383 ft 17 kts 281°
2026-04-24 03:30 39.86128 -104.66673 5381 ft 20 kts 270°
2026-04-24 03:30 39.86130 -104.66859 5379 ft 22 kts 271°
2026-04-24 03:31 39.86130 -104.67044 5377 ft 21 kts 270°
2026-04-24 03:31 39.86131 -104.67231 5376 ft 19 kts 274°
2026-04-24 03:31 39.86134 -104.67399 5374 ft 15 kts 271°
2026-04-24 03:31 39.86185 -104.67502 5371 ft 9 kts 303°
2026-04-24 03:32 39.86195 -104.67559 5371 ft 3 kts 274°
2026-04-24 03:32 39.86197 -104.67602 5370 ft 7 kts 274°
2026-04-24 03:32 39.86228 -104.67636 5373 ft 5 kts 360°
2026-04-24 03:32 39.86253 -104.67632 5372 ft 1 kts
2026-04-24 03:33 39.86254 -104.67632 5372 ft 0 kts